PW5140 Weather Reports


Display with metric or nautical units.
time (UTC)temp
F
wind
direction
speed
MPH
gust
MPH
rain 1hr
in
rain 24hr
in
rain mn
in
humidity
%
barometer
mb
20210127043318 59 169 0.0 0.0 0.00 0.00 0.00 62 1012.0
20210127042817 59 169 0.0 0.0 0.00 0.00 0.00 63 1011.9
20210127042313 59 169 0.0 0.0 0.00 0.00 0.00 63 1011.8
20210127041827 59 169 0.0 0.0 0.00 0.00 0.00 62 1011.9
20210127041323 59 169 0.0 0.0 0.00 0.00 0.00 61 1011.8
20210127040826 59 169 0.0 0.0 0.00 0.00 0.00 61 1011.8
20210127040314 60 169 0.0 0.0 0.00 0.00 0.00 61 1011.8
20210127035830 60 169 0.0 0.0 0.00 0.00 0.00 60 1011.8
20210127035327 60 169 0.0 0.0 0.00 0.00 0.00 60 1011.8
20210127034824 60 169 0.0 0.0 0.00 0.00 0.00 60 1011.7
20210127034319 60 169 0.0 0.0 0.00 0.00 0.00 60 1011.8
20210127033815 60 169 0.0 0.0 0.00 0.00 0.00 61 1011.8
20210127033312 60 169 0.0 0.0 0.00 0.00 0.00 62 1011.8
20210127032827 60 169 0.0 0.0 0.00 0.00 0.00 62 1011.8
20210127032321 60 169 0.0 0.0 0.00 0.00 0.00 63 1011.8
20210127031817 60 169 0.0 0.0 0.00 0.00 0.00 62 1011.8
20210127031317 60 169 0.0 0.0 0.00 0.00 0.00 62 1011.7
20210127030817 59 169 0.0 0.0 0.00 0.00 0.00 62 1011.7
20210127030329 59 169 0.0 0.0 0.00 0.00 0.00 63 1011.6
20210127025824 59 169 0.0 0.0 0.00 0.00 0.00 62 1011.5
20210127025316 59 169 0.0 0.0 0.00 0.00 0.00 61 1011.5
20210127024813 59 169 0.0 0.0 0.00 0.00 0.00 61 1011.5
20210127024327 60 169 0.0 0.0 0.00 0.00 0.00 61 1011.6
20210127023832 60 169 0.0 0.0 0.00 0.00 0.00 62 1011.3
20210127023324 60 169 0.0 0.0 0.00 0.00 0.00 59 1011.2
20210127022818 60 169 0.0 0.0 0.00 0.00 0.00 58 1011.0
20210127022312 60 169 0.0 0.0 0.00 0.00 0.00 57 1011.0
20210127021827 60 169 0.0 0.0 0.00 0.00 0.00 58 1010.9
20210127021330 60 169 0.0 0.0 0.00 0.00 0.00 59 1010.7
20210127020818 60 169 0.0 0.0 0.00 0.00 0.00 59 1010.7
20210127020317 60 169 0.0 1.0 0.00 0.00 0.00 58 1010.7
20210127015815 61 169 0.0 1.0 0.00 0.00 0.00 58 1010.7
20210127015330 61 169 0.0 1.0 0.00 0.00 0.00 54 1010.7
20210127014823 61 169 0.0 1.0 0.00 0.00 0.00 55 1010.6
20210127014319 61 169 0.0 1.0 0.00 0.00 0.00 55 1010.6
20210127013814 62 169 0.0 1.0 0.00 0.00 0.00 57 1010.5
20210127013329 62 169 0.0 0.0 0.00 0.00 0.00 56 1010.6
20210127012825 62 169 0.0 0.0 0.00 0.00 0.00 55 1010.7
20210127012323 62 169 0.0 0.0 0.00 0.00 0.00 52 1010.9
20210127011822 63 169 0.0 0.0 0.00 0.00 0.00 53 1010.8
20210127011316 63 169 0.0 0.0 0.00 0.00 0.00 54 1010.7
20210127010811 63 169 0.0 0.0 0.00 0.00 0.00 52 1010.7
20210127010325 64 169 0.0 0.0 0.00 0.00 0.00 51 1010.8
20210127005824 64 169 0.0 0.0 0.00 0.00 0.00 51 1010.7
20210127005339 65 169 0.0 0.0 0.00 0.00 0.00 50 1010.6
20210127004823 65 169 0.0 0.0 0.00 0.00 0.00 51 1010.6
20210127004310 65 169 0.0 0.0 0.00 0.00 0.00 49 1010.6
20210127003828 66 169 0.0 0.0 0.00 0.00 0.00 48 1010.5
20210127003320 66 169 0.0 0.0 0.00 0.00 0.00 48 1010.4
20210127002820 66 169 0.0 0.0 0.00 0.00 0.00 46 1010.4
20210127002313 67 169 0.0 0.0 0.00 0.00 0.00 44 1010.4
20210127001827 67 169 0.0 0.0 0.00 0.00 0.00 43 1010.4
20210127001322 68 169 0.0 0.0 0.00 0.00 0.00 42 1010.4
20210127000822 68 169 0.0 0.0 0.00 0.00 0.00 42 1010.3
20210127000349 68 169 0.0 0.0 0.00 0.00 0.00 40 1010.2
20210126235812 69 169 0.0 0.0 0.00 0.00 0.00 40 1010.3
20210126235338 69 169 0.0 0.0 0.00 0.00 0.00 40 1010.3
20210126234823 69 169 0.0 1.0 0.00 0.00 0.00 40 1010.2
20210126234318 70 169 0.0 4.0 0.00 0.00 0.00 40 1010.1
20210126233833 70 169 0.0 4.0 0.00 0.00 0.00 38 1010.1
20210126233338 70 119 0.0 1.0 0.00 0.00 0.00 39 1010.3
20210126232827 70 119 0.0 2.0 0.00 0.00 0.00 39 1010.3
20210126232324 70 119 0.0 2.0 0.00 0.00 0.00 40 1010.2
20210126231820 70 119 0.0 0.0 0.00 0.00 0.00 38 1010.2
20210126231314 71 119 0.0 1.0 0.00 0.00 0.00 37 1010.1
20210126230829 71 38 0.0 1.0 0.00 0.00 0.00 37 1010.1
20210126230324 71 38 0.0 1.0 0.00 0.00 0.00 36 1010.2
20210126225840 71 38 0.0 1.0 0.00 0.00 0.00 36 1010.2
20210126225314 71 38 0.0 1.0 0.00 0.00 0.00 35 1010.2
20210126224820 71 344 0.0 2.0 0.00 0.00 0.00 35 1010.1
20210126224354 72 64 0.0 2.0 0.00 0.00 0.00 34 1010.1
20210126223823 72 169 0.0 2.0 0.00 0.00 0.00 34 1010.2
20210126223320 72 170 0.0 2.0 0.00 0.00 0.00 34 1010.2
20210126222815 72 170 0.0 2.0 0.00 0.00 0.00 34 1010.3
20210126222330 72 161 0.0 2.0 0.00 0.00 0.00 34 1010.3
20210126221826 72 207 0.0 4.0 0.00 0.00 0.00 34 1010.3
20210126221321 72 207 0.0 4.0 0.00 0.00 0.00 33 1010.3
20210126220825 72 92 1.0 4.0 0.00 0.00 0.00 33 1010.2
20210126220316 72 5 0.0 4.0 0.00 0.00 0.00 36 1010.3
20210126215833 72 77 0.0 4.0 0.00 0.00 0.00 35 1010.3
20210126215327 72 77 1.0 4.0 0.00 0.00 0.00 36 1010.3
20210126214823 73 5 0.0 4.0 0.00 0.00 0.00 36 1010.3
20210126214317 73 206 0.0 2.0 0.00 0.00 0.00 35 1010.3
20210126213812 73 38 0.0 7.0 0.00 0.00 0.00 36 1010.3
20210126213311 73 71 0.0 7.0 0.00 0.00 0.00 35 1010.3
20210126212828 73 35 0.0 5.0 0.00 0.00 0.00 35 1010.4
20210126212324 73 56 2.0 5.0 0.00 0.00 0.00 34 1010.5
20210126211816 74 60 2.0 5.0 0.00 0.00 0.00 34 1010.5
20210126211311 74 48 1.0 5.0 0.00 0.00 0.00 34 1010.5
20210126210827 73 59 0.0 6.0 0.00 0.00 0.00 34 1010.5
20210126210322 73 78 1.0 4.0 0.00 0.00 0.00 33 1010.4
20210126205821 73 30 1.0 5.0 0.00 0.00 0.00 33 1010.5
20210126205321 74 88 2.0 5.0 0.00 0.00 0.00 33 1010.6
20210126204813 74 20 0.0 5.0 0.00 0.00 0.00 34 1010.6
20210126204405 74 53 1.0 5.0 0.00 0.00 0.00 33 1010.5
20210126203825 74 360 1.0 5.0 0.00 0.00 0.00 34 1010.6
20210126203319 73 107 1.0 5.0 0.00 0.00 0.00 35 1010.6
20210126202815 73 23 0.0 5.0 0.00 0.00 0.00 35 1010.7
20210126202325 72 11 1.0 5.0 0.00 0.00 0.00 37 1010.8
20210126201828 72 116 0.0 4.0 0.00 0.00 0.00 37 1010.8
20210126201329 72 107 1.0 4.0 0.00 0.00 0.00 37 1010.8
20210126200823 72 30 1.0 6.0 0.00 0.00 0.00 37 1010.8
20210126200316 72 64 1.0 6.0 0.00 0.00 0.00 37 1010.9
20210126195830 72 91 1.0 4.0 0.00 0.00 0.00 37 1010.9
20210126195343 72 47 0.0 4.0 0.00 0.00 0.00 39 1011.0
20210126194819 72 93 0.0 1.0 0.00 0.00 0.00 39 1011.2
20210126194318 72 96 0.0 5.0 0.00 0.00 0.00 37 1011.2
20210126193814 72 96 0.0 5.0 0.00 0.00 0.00 37 1011.4
20210126193330 72 86 1.0 4.0 0.00 0.00 0.00 36 1011.5
20210126192826 72 40 1.0 4.0 0.00 0.00 0.00 38 1011.5
20210126192321 72 348 0.0 4.0 0.00 0.00 0.00 38 1011.6
20210126191815 72 350 0.0 4.0 0.00 0.00 0.00 36 1011.6
20210126191331 72 22 0.0 5.0 0.00 0.00 0.00 36 1011.7
20210126190830 72 75 2.0 5.0 0.00 0.00 0.00 37 1011.7
20210126190329 72 102 1.0 4.0 0.00 0.00 0.00 38 1011.7
20210126185822 71 97 1.0 4.0 0.00 0.00 0.00 39 1011.8
20210126185320 71 84 0.0 4.0 0.00 0.00 0.00 38 1011.8
20210126184832 71 111 1.0 4.0 0.00 0.00 0.00 39 1011.9
20210126184324 71 9 1.0 7.0 0.00 0.00 0.00 39 1012.1
20210126183821 71 80 1.0 3.0 0.00 0.00 0.00 42 1012.1
20210126183319 71 101 2.0 4.0 0.00 0.00 0.00 42 1012.2
20210126182814 70 298 1.0 6.0 0.00 0.00 0.00 43 1012.2
20210126182334 70 135 0.0 6.0 0.00 0.00 0.00 44 1012.4
20210126181824 70 233 0.0 6.0 0.00 0.00 0.00 43 1012.6
20210126181322 69 127 2.0 6.0 0.00 0.00 0.00 43 1012.7
20210126180816 68 46 2.0 4.0 0.00 0.00 0.00 45 1012.7
20210126180331 68 61 1.0 4.0 0.00 0.00 0.00 46 1012.9
20210126175834 67 11 0.0 4.0 0.00 0.01 0.00 50 1012.9
20210126175336 66 344 1.0 4.0 0.00 0.01 0.00 49 1013.0
20210126174823 66 283 1.0 4.0 0.00 0.01 0.00 49 1013.1
20210126174318 65 25 0.0 6.0 0.00 0.01 0.00 49 1013.2
20210126173828 65 71 2.0 6.0 0.00 0.01 0.00 50 1013.2
20210126173326 64 79 1.0 4.0 0.00 0.01 0.00 52 1013.3
20210126172819 64 16 1.0 4.0 0.00 0.01 0.00 52 1013.4
20210126172315 63 49 0.0 2.0 0.00 0.01 0.00 53 1013.4
20210126171814 63 346 0.0 2.0 0.00 0.01 0.00 55 1013.4
20210126171330 63 346 1.0 2.0 0.00 0.01 0.00 55 1013.4
20210126170833 62 67 0.0 1.0 0.00 0.01 0.00 55 1013.4
20210126170324 62 67 0.0 1.0 0.00 0.01 0.00 58 1013.5
20210126165815 62 67 0.0 1.0 0.00 0.01 0.00 59 1013.7
20210126164829 61 67 0.0 0.0 0.00 0.01 0.00 58 1013.5
20210126164327 61 67 0.0 0.0 0.00 0.01 0.00 60 1013.4
20210126163824 60 67 0.0 2.0 0.00 0.01 0.00 63 1013.3
20210126163316 60 67 0.0 2.0 0.00 0.01 0.00 63 1013.4
20210126162811 60 67 0.0 1.0 0.00 0.01 0.00 62 1013.5
20210126162326 60 67 0.0 0.0 0.00 0.01 0.00 64 1013.5
20210126161823 59 67 0.0 0.0 0.00 0.01 0.00 64 1013.5
20210126161318 59 67 0.0 0.0 0.00 0.01 0.00 64 1013.5
20210126160815 59 67 0.0 1.0 0.00 0.01 0.00 65 1013.5
20210126160311 58 67 0.0 1.0 0.00 0.01 0.00 65 1013.4
20210126155827 58 67 0.0 4.0 0.00 0.01 0.00 66 1013.4
20210126155329 57 47 0.0 4.0 0.00 0.01 0.00 67 1013.4
20210126154817 57 50 0.0 2.0 0.00 0.01 0.00 71 1013.3
20210126154313 57 63 0.0 4.0 0.00 0.01 0.00 73 1013.3
20210126153828 56 29 0.0 4.0 0.00 0.01 0.00 76 1013.2
20210126153324 55 198 0.0 0.0 0.00 0.01 0.00 79 1013.2
20210126152825 55 198 0.0 0.0 0.00 0.01 0.00 79 1013.1
20210126152320 54 198 0.0 0.0 0.00 0.01 0.00 79 1013.0
20210126151814 53 198 0.0 0.0 0.00 0.01 0.00 80 1013.0
20210126151331 53 198 0.0 0.0 0.00 0.01 0.00 80 1012.9
20210126150825 52 198 0.0 0.0 0.00 0.01 0.00 80 1012.8
20210126150320 52 198 0.0 0.0 0.00 0.01 0.00 80 1012.7
20210126145818 51 198 0.0 0.0 0.00 0.01 0.00 81 1012.7
20210126145314 51 198 0.0 0.0 0.00 0.01 0.00 80 1012.6
20210126144831 50 198 0.0 0.0 0.00 0.01 0.00 80 1012.7
20210126144328 50 198 0.0 0.0 0.00 0.01 0.00 80 1012.5
20210126143820 50 198 0.0 0.0 0.00 0.01 0.00 79 1012.4
20210126143319 49 198 0.0 0.0 0.00 0.01 0.00 80 1012.4
20210126142811 49 198 0.0 0.0 0.00 0.01 0.00 79 1012.3
20210126142326 49 198 0.0 0.0 0.00 0.01 0.00 78 1012.0
20210126141828 49 198 0.0 0.0 0.00 0.01 0.00 77 1011.8
20210126141321 48 198 0.0 0.0 0.00 0.01 0.00 77 1011.7
20210126140816 48 198 0.0 0.0 0.00 0.01 0.00 75 1011.6
20210126140312 48 198 0.0 0.0 0.00 0.01 0.00 76 1011.4
20210126135835 48 198 0.0 0.0 0.00 0.01 0.00 77 1011.4
20210126135322 48 198 0.0 0.0 0.00 0.01 0.00 75 1011.3
20210126134818 48 198 0.0 0.0 0.00 0.01 0.00 74 1011.3
20210126134318 49 198 0.0 0.0 0.00 0.01 0.00 74 1011.2
20210126133813 49 198 0.0 0.0 0.00 0.01 0.00 75 1011.2
20210126133331 49 198 0.0 0.0 0.00 0.01 0.00 73 1011.1
20210126132824 49 198 0.0 0.0 0.00 0.01 0.00 76 1011.0
20210126132318 50 198 0.0 0.0 0.00 0.01 0.00 76 1011.0
20210126131814 50 198 0.0 0.0 0.00 0.01 0.00 77 1010.9
20210126131330 50 198 0.0 1.0 0.00 0.01 0.00 76 1010.7
20210126130825 50 198 0.0 1.0 0.00 0.01 0.00 77 1010.7
20210126130324 50 198 0.0 0.0 0.00 0.01 0.00 76 1010.8
20210126125824 50 198 0.0 0.0 0.00 0.01 0.00 73 1010.7
20210126125326 50 198 0.0 1.0 0.00 0.01 0.00 74 1010.7
20210126124830 50 198 0.0 1.0 0.00 0.01 0.00 72 1010.5
20210126124326 50 198 0.0 0.0 0.00 0.01 0.00 72 1010.5
20210126123823 50 198 0.0 2.0 0.00 0.01 0.00 73 1010.5
20210126123316 50 198 0.0 2.0 0.00 0.01 0.00 73 1010.6
20210126122817 50 198 0.0 1.0 0.00 0.01 0.00 73 1010.4
20210126122310 50 198 0.0 4.0 0.00 0.01 0.00 75 1010.3
20210126121827 50 198 2.0 3.0 0.00 0.01 0.00 75 1010.2
20210126121326 49 280 0.0 2.0 0.00 0.01 0.00 78 1010.0
20210126120823 49 280 0.0 0.0 0.00 0.01 0.00 82 1009.9
20210126120312 49 280 0.0 1.0 0.00 0.01 0.00 82 1009.9
20210126115828 49 280 0.0 1.0 0.00 0.01 0.00 82 1009.9
20210126115327 49 280 0.0 0.0 0.00 0.01 0.00 82 1010.0
20210126114824 49 280 0.0 0.0 0.00 0.01 0.00 83 1009.9
20210126114327 49 280 0.0 0.0 0.00 0.01 0.00 84 1009.9
20210126113812 49 280 0.0 0.0 0.00 0.01 0.00 85 1010.1
20210126113329 49 280 0.0 0.0 0.00 0.01 0.00 85 1010.2
20210126112823 49 280 0.0 0.0 0.00 0.01 0.00 86 1010.2
20210126112333 49 280 0.0 0.0 0.00 0.01 0.00 86 1010.3
20210126111820 48 280 0.0 0.0 0.00 0.01 0.00 86 1010.4
20210126111317 48 280 0.0 0.0 0.00 0.01 0.00 87 1010.3
20210126110834 48 280 0.0 0.0 0.00 0.01 0.00 87 1010.5
20210126110330 48 280 0.0 0.0 0.00 0.01 0.00 87 1010.5
20210126105820 47 280 0.0 0.0 0.00 0.01 0.00 87 1010.5
20210126105324 47 280 0.0 0.0 0.00 0.01 0.00 87 1010.6
20210126104816 47 280 0.0 0.0 0.00 0.01 0.00 86 1010.6
20210126104310 47 280 0.0 0.0 0.00 0.01 0.00 86 1010.6
20210126103834 47 280 0.0 0.0 0.00 0.01 0.00 86 1010.5
20210126103323 47 280 0.0 0.0 0.00 0.01 0.00 86 1010.5
20210126102830 47 280 0.0 0.0 0.00 0.01 0.00 85 1010.5
20210126102324 47 280 0.0 0.0 0.00 0.01 0.00 85 1010.5
20210126101827 47 280 0.0 0.0 0.00 0.01 0.00 85 1010.6
20210126101322 47 280 0.0 0.0 0.00 0.01 0.00 85 1010.6
20210126100819 48 280 0.0 0.0 0.00 0.01 0.00 85 1010.7
20210126100317 48 280 0.0 0.0 0.00 0.01 0.00 85 1010.8
20210126095812 48 280 0.0 0.0 0.00 0.01 0.00 86 1010.9
20210126095329 48 280 0.0 0.0 0.00 0.01 0.00 85 1010.9
20210126094826 48 280 0.0 0.0 0.00 0.01 0.00 86 1011.0
20210126094321 48 280 0.0 0.0 0.00 0.01 0.00 86 1011.1
20210126093817 48 280 0.0 0.0 0.00 0.01 0.00 85 1011.2
20210126093338 48 280 0.0 0.0 0.00 0.01 0.00 85 1011.2
20210126092828 48 280 0.0 0.0 0.00 0.01 0.00 85 1011.2
20210126092329 49 280 0.0 0.0 0.00 0.01 0.00 85 1011.2
20210126091820 49 280 0.0 0.0 0.00 0.01 0.00 85 1011.3
20210126091315 49 280 0.0 0.0 0.00 0.01 0.00 85 1011.3
20210126090811 49 280 0.0 0.0 0.00 0.01 0.00 84 1011.3
20210126090327 49 280 0.0 0.0 0.00 0.01 0.00 84 1011.3
20210126085821 49 280 0.0 0.0 0.00 0.01 0.00 84 1011.3
20210126085322 49 280 0.0 0.0 0.00 0.01 0.00 84 1011.3
20210126084817 49 280 0.0 0.0 0.00 0.01 0.00 83 1011.3
20210126084312 49 280 0.0 0.0 0.00 0.01 0.00 84 1011.3
20210126083828 49 280 0.0 0.0 0.00 0.01 0.00 84 1011.2
20210126083335 49 280 0.0 0.0 0.00 0.01 0.00 83 1011.3
20210126082821 49 280 0.0 0.0 0.00 0.01 0.00 83 1011.2
20210126082319 49 280 0.0 0.0 0.00 0.01 0.00 83 1011.2
20210126081812 49 280 0.0 0.0 0.00 0.01 0.00 83 1011.2
20210126081328 49 280 0.0 0.0 0.00 0.01 0.00 83 1011.1
20210126080823 49 280 0.0 0.0 0.00 0.01 0.00 83 1011.2
20210126080319 49 280 0.0 0.0 0.00 0.01 0.00 83 1011.2
20210126075814 49 280 0.0 0.0 0.00 0.01 0.00 82 1011.2
20210126075335 49 280 0.0 0.0 0.00 0.01 0.00 82 1011.2
20210126074823 50 280 0.0 0.0 0.00 0.01 0.00 82 1011.2
20210126074320 50 280 0.0 0.0 0.00 0.01 0.00 82 1011.2
20210126073825 50 280 0.0 0.0 0.00 0.01 0.00 82 1011.2
20210126073314 50 280 0.0 0.0 0.00 0.01 0.00 82 1011.2
20210126072829 50 280 0.0 0.0 0.00 0.01 0.00 82 1011.1
20210126072330 50 280 0.0 0.0 0.00 0.01 0.00 82 1011.1
20210126071820 51 280 0.0 0.0 0.00 0.01 0.00 81 1011.1
20210126071315 51 280 0.0 0.0 0.00 0.01 0.00 81 1011.1
20210126070811 51 280 0.0 0.0 0.00 0.01 0.00 82 1011.1
20210126070311 51 280 0.0 0.0 0.00 0.01 0.00 82 1011.0
20210126065825 51 280 0.0 0.0 0.00 0.01 0.00 82 1010.9
20210126065321 51 280 0.0 0.0 0.00 0.01 0.00 81 1010.9
20210126064817 51 280 0.0 0.0 0.00 0.01 0.00 81 1010.8
20210126064312 51 280 0.0 0.0 0.00 0.01 0.00 80 1010.6
20210126063827 51 280 0.0 0.0 0.00 0.01 0.00 80 1010.6
20210126063323 52 280 0.0 0.0 0.00 0.01 0.00 80 1010.5
20210126062821 52 280 0.0 0.0 0.00 0.01 0.00 80 1010.4
20210126062317 52 280 0.0 0.0 0.00 0.01 0.00 79 1010.4
20210126061812 52 280 0.0 0.0 0.00 0.01 0.00 78 1010.6
20210126061333 52 280 0.0 0.0 0.00 0.01 0.00 78 1010.8
20210126060827 52 280 0.0 0.0 0.00 0.01 0.00 78 1011.0
20210126060320 53 280 0.0 0.0 0.00 0.01 0.00 78 1011.1
20210126055815 53 280 0.0 0.0 0.00 0.01 0.01 78 1011.0
20210126055315 53 280 0.0 0.0 0.00 0.01 0.01 77 1011.0
20210126054835 53 280 0.0 1.0 0.00 0.01 0.01 77 1010.9
20210126054324 53 280 0.0 1.0 0.00 0.01 0.01 76 1010.9
20210126053821 54 280 0.0 1.0 0.00 0.01 0.01 76 1010.8
20210126053318 54 280 0.0 0.0 0.00 0.01 0.01 76 1010.8
20210126052810 54 280 0.0 0.0 0.00 0.01 0.01 75 1010.6
20210126052327 54 280 0.0 0.0 0.00 0.01 0.01 74 1010.6
20210126051821 55 280 0.0 0.0 0.00 0.01 0.01 74 1010.6
20210126051320 55 280 0.0 0.0 0.00 0.01 0.01 74 1010.5
20210126050827 55 280 0.0 0.0 0.00 0.01 0.01 74 1010.5
20210126050311 55 280 0.0 0.0 0.00 0.01 0.01 74 1010.4
20210126045826 56 280 0.0 0.0 0.00 0.01 0.01 75 1010.4
20210126045322 56 280 0.0 0.0 0.00 0.01 0.01 72 1010.4
20210126044821 56 280 0.0 0.0 0.00 0.01 0.01 71 1010.4
20210126044314 56 280 0.0 0.0 0.00 0.01 0.01 73 1010.3
20210126043811 57 280 0.0 0.0 0.00 0.01 0.01 74 1010.1